TimeEST,TemperatureF,Dew PointF,Humidity,Sea Level PressureIn,VisibilityMPH,Wind Direction,Wind SpeedMPH,Gust SpeedMPH,PrecipitationIn,Events,Conditions,WindDirDegrees,DateUTC
12:53 AM,68.0,61.0,78,30.16,10.0,East,9.2,-,N/A,,Partly Cloudy,80,2013-02-10 05:53:00
1:53 AM,66.9,61.0,81,30.16,10.0,East,9.2,-,N/A,,Mostly Cloudy,80,2013-02-10 06:53:00
2:53 AM,66.0,60.1,81,30.14,10.0,East,8.1,-,N/A,,Clear,90,2013-02-10 07:53:00
3:53 AM,66.0,59.0,78,30.14,10.0,East,9.2,-,N/A,,Clear,90,2013-02-10 08:53:00
4:53 AM,64.9,59.0,81,30.14,10.0,East,8.1,-,N/A,,Clear,90,2013-02-10 09:53:00
5:53 AM,64.0,59.0,84,30.16,10.0,East,8.1,-,N/A,,Clear,80,2013-02-10 10:53:00
6:53 AM,63.0,57.9,84,30.17,10.0,East,8.1,-,N/A,,Clear,80,2013-02-10 11:53:00
7:53 AM,66.0,59.0,78,30.19,10.0,East,9.2,-,N/A,,Clear,80,2013-02-10 12:53:00
8:53 AM,70.0,60.1,71,30.20,10.0,East,9.2,-,N/A,,Clear,90,2013-02-10 13:53:00
9:53 AM,75.0,61.0,62,30.22,10.0,ESE,10.4,-,N/A,,Clear,110,2013-02-10 14:53:00
10:53 AM,78.1,61.0,56,30.22,10.0,ESE,11.5,-,N/A,,Partly Cloudy,120,2013-02-10 15:53:00
11:53 AM,80.1,61.0,52,30.22,10.0,SE,15.0,19.6,N/A,,Mostly Cloudy,140,2013-02-10 16:53:00
12:53 PM,82.0,59.0,45,30.19,10.0,ESE,15.0,21.9,N/A,,Mostly Cloudy,120,2013-02-10 17:53:00
1:53 PM,82.0,59.0,45,30.16,10.0,SE,11.5,-,N/A,,Scattered Clouds,140,2013-02-10 18:53:00
2:53 PM,82.9,57.9,42,30.13,10.0,ESE,11.5,-,N/A,,Mostly Cloudy,120,2013-02-10 19:53:00
3:53 PM,80.1,57.9,47,30.13,10.0,ESE,9.2,-,N/A,,Mostly Cloudy,120,2013-02-10 20:53:00
4:53 PM,79.0,57.0,47,30.13,10.0,ESE,8.1,-,N/A,,Mostly Cloudy,120,2013-02-10 21:53:00
5:53 PM,78.1,59.0,52,30.14,10.0,East,12.7,-,N/A,,Mostly Cloudy,100,2013-02-10 22:53:00
6:53 PM,73.9,62.1,66,30.17,10.0,East,10.4,-,N/A,,Scattered Clouds,100,2013-02-10 23:53:00
7:53 PM,73.0,62.1,68,30.19,10.0,East,11.5,-,N/A,,Mostly Cloudy,100,2013-02-11 00:53:00
8:53 PM,71.1,62.1,73,30.19,10.0,ESE,8.1,-,N/A,,Clear,120,2013-02-11 01:53:00
9:53 PM,70.0,62.1,76,30.19,10.0,ESE,8.1,-,N/A,,Clear,120,2013-02-11 02:53:00
10:53 PM,68.0,62.1,81,30.19,10.0,East,4.6,-,N/A,,Clear,90,2013-02-11 03:53:00
11:53 PM,64.9,62.1,90,30.19,10.0,East,4.6,-,N/A,,Clear,90,2013-02-11 04:53:00